FW7134 Weather Reports


time (UTC)temp
C
wind
direction
speed
KPH
gust
KPH
rain 1hr
cm
rain 24hr
cm
rain mn
cm
humidity
%
barometer
mb
20260831114517 17 329 8.0 20.9 0.00 0.08 0.08 100 1010.7
20260831113012 16 312 4.8 16.1 0.00 0.08 0.08 100 1010.7
20260831111509 15 327 6.4 17.7 0.00 0.08 0.08 100 1010.4
20260831110008 15 309 4.8 17.7 0.00 0.08 0.08 100 1010.4
20260831104519 15 304 4.8 12.9 0.00 0.08 0.08 100 1010.3
20260831103005 15 317 3.2 14.5 0.00 0.08 0.08 100 1010.2
20260831101503 15 290 1.6 11.3 0.00 0.08 0.08 100 1010.0
20260831100003 15 304 1.6 8.0 0.00 0.08 0.08 100 1009.7
20260831094502 15 299 4.8 12.9 0.00 0.08 0.08 100 1009.7
20260831093001 16 292 4.8 11.3 0.00 0.08 0.08 100 1009.6
20260831091605 15 295 8.0 16.1 0.00 0.08 0.08 100 1009.5
20260831090114 15 245 1.6 11.3 0.00 0.08 0.08 100 1009.4
20260831084600 15 257 4.8 11.3 0.00 0.08 0.08 100 1009.4
20260831083059 15 261 4.8 11.3 0.00 0.08 0.08 100 1009.3
20260831081600 15 271 6.4 14.5 0.00 0.08 0.08 100 1009.2
20260831080054 15 292 4.8 12.9 0.00 0.08 0.08 100 1009.1
20260831074554 15 329 4.8 14.5 0.00 0.08 0.08 100 1009.0
20260831073050 15 326 3.2 14.5 0.00 0.08 0.08 100 1008.9
20260831071547 15 313 1.6 9.7 0.00 0.08 0.08 100 1009.2
20260831070107 15 317 0.0 1.6 0.00 0.08 0.08 100 1008.9
20260831064543 16 317 0.0 4.8 0.00 0.08 0.08 100 1009.0
20260831063042 16 318 0.0 9.7 0.00 0.08 0.08 100 1009.1
20260831061540 16 276 1.6 6.4 0.03 0.08 0.08 100 1009.3
20260831060048 16 281 4.8 12.9 0.03 0.08 0.08 100 1009.3
20260831054539 16 302 6.4 14.5 0.03 0.08 0.08 100 1009.2
20260831053037 16 281 6.4 17.7 0.03 0.08 0.08 100 1009.5
20260831051549 16 296 8.0 20.9 0.00 0.05 0.05 100 1009.5
20260831050037 16 271 4.8 14.5 0.03 0.05 0.05 100 1009.5
20260831044535 16 265 8.0 19.3 0.03 0.05 0.05 100 1009.6
20260831043030 16 267 12.9 24.1 0.03 0.05 0.05 100 1009.7
20260831041532 16 287 12.9 20.9 0.03 0.05 0.05 100 1009.8
20260831040039 17 281 11.3 19.3 0.03 0.03 0.03 100 1009.9
20260831034520 17 246 4.8 11.3 0.03 0.03 0.03 100 1009.7
20260831033020 17 263 6.4 14.5 0.03 0.03 0.03 100 1009.8
20260831031516 17 274 4.8 19.3 0.00 0.00 0.00 100 1009.7
20260831030013 17 290 6.4 30.6 0.00 0.00 0.00 100 1009.8
20260831024512 16 220 0.0 0.0 0.00 0.00 0.00 100 1009.8
20260831023022 17 220 0.0 1.6 0.00 0.00 0.00 100 1009.7
20260831021532 17 220 1.6 3.2 0.00 0.00 0.00 100 1009.9
20260831020008 17 220 1.6 4.8 0.00 0.00 0.00 100 1010.1
20260831014506 17 220 3.2 6.4 0.00 0.00 0.00 100 1010.3
20260831013005 17 219 1.6 6.4 0.00 0.00 0.00 100 1010.5
20260831011505 17 218 3.2 4.8 0.00 0.00 0.00 100 1010.7
20260831010001 17 218 1.6 4.8 0.00 0.00 0.00 100 1011.0
20260831004502 17 219 1.6 6.4 0.00 0.00 0.00 100 1011.1
20260831003000 17 219 0.0 0.0 0.00 0.00 0.00 100 1011.2
20260831001608 17 219 0.0 0.0 0.00 0.00 0.00 100 1011.2
20260831000059 17 219 0.0 0.0 0.00 0.00 0.00 100 1011.2
20260830234558 17 219 0.0 0.0 0.00 0.00 0.00 100 1011.3
20260830233059 18 218 0.0 3.2 0.00 0.00 0.00 100 1010.9
20260830231558 18 218 0.0 0.0 0.00 0.00 0.00 100 1011.1
20260830230057 19 218 0.0 4.8 0.00 0.00 0.00 100 1011.1
20260830224605 20 218 0.0 0.0 0.00 0.00 0.00 100 1010.8
20260830223055 20 218 0.0 0.0 0.00 0.00 0.00 100 1011.1
20260830221554 20 218 0.0 1.6 0.00 0.00 0.00 100 1011.2
20260830220113 21 218 1.6 3.2 0.00 0.00 0.00 100 1011.3
20260830214601 21 221 3.2 6.4 0.00 0.00 0.00 100 1011.5
20260830214522 21 221 3.2 6.4 0.00 0.00 0.00 100 1011.5
20260830213102 21 224 6.4 14.5 0.00 0.00 0.00 100 1011.5
20260830211550 21 236 9.7 16.1 0.00 0.00 0.00 100 1011.4
20260830210049 22 241 12.9 24.1 0.00 0.00 0.00 100 1011.9
20260830204548 22 231 6.4 20.9 0.00 0.00 0.00 100 1011.8
20260830203056 23 238 11.3 17.7 0.00 0.00 0.00 100 1011.8
20260830201645 23 228 14.5 22.5 0.00 0.00 0.00 100 1012.0
20260830200045 23 261 14.5 32.2 0.00 0.00 0.00 100 1012.0
20260830194545 23 244 17.7 27.4 0.00 0.00 0.00 98 1011.9
20260830193044 23 239 16.1 32.2 0.00 0.00 0.00 100 1011.9
20260830191542 23 242 14.5 25.7 0.00 0.00 0.00 100 1012.1
20260830190042 22 234 16.1 32.2 0.00 0.00 0.00 100 1012.3
20260830184540 23 284 12.9 40.2 0.00 0.00 0.00 96 1012.2
20260830183038 23 254 16.1 24.1 0.00 0.00 0.00 95 1012.5
20260830181542 24 259 12.9 24.1 0.00 0.00 0.00 100 1012.5
20260830180050 23 262 16.1 30.6 0.00 0.00 0.00 99 1012.7
20260830174541 23 273 16.1 25.7 0.00 0.00 0.00 100 1013.0
20260830173054 23 267 14.5 30.6 0.00 0.00 0.00 100 1013.0
20260830171531 23 325 12.9 24.1 0.00 0.00 0.00 100 1013.1
20260830170028 24 263 12.9 27.4 0.00 0.00 0.00 100 1013.2
20260830164526 25 260 19.3 32.2 0.00 0.00 0.00 100 1013.3
20260830163024 24 250 19.3 38.6 0.00 0.00 0.00 100 1013.4
20260830161519 24 222 16.1 30.6 0.00 0.00 0.00 99 1013.7
20260830160014 24 232 19.3 27.4 0.00 0.00 0.00 97 1013.8
20260830154511 24 212 14.5 32.2 0.00 0.00 0.00 100 1014.1
20260830153007 23 239 22.5 32.2 0.00 0.00 0.00 100 1014.2
20260830151503 23 252 19.3 33.8 0.00 0.00 0.00 100 1014.5
20260830150104 23 271 17.7 33.8 0.00 0.00 0.00 100 1014.6
20260830144557 23 252 20.9 29.0 0.00 0.00 0.00 100 1015.0
20260830143055 23 258 17.7 30.6 0.00 0.00 0.00 100 1015.2
20260830141546 22 281 12.9 30.6 0.00 0.00 0.00 100 1015.3
20260830140042 22 218 17.7 29.0 0.00 0.00 0.00 100 1015.6
20260830134546 22 242 12.9 27.4 0.00 0.00 0.00 100 1015.7
20260830133037 22 250 14.5 25.7 0.00 0.00 0.00 100 1015.9
20260830131526 21 249 14.5 25.7 0.00 0.00 0.00 100 1016.1
20260830130023 21 205 8.0 12.9 0.00 0.00 0.00 100 1016.2
20260830124522 20 225 8.0 12.9 0.00 0.00 0.00 100 1016.0
20260830123019 18 248 6.4 14.5 0.00 0.00 0.00 100 1016.4
20260830121509 17 232 8.0 12.9 0.00 0.00 0.00 100 1016.4
20260830120004 17 254 6.4 16.1 0.00 0.00 0.00 100 1016.6